Tracking 30160 objects as of 13-Feb-2025
HD Live streaming from Space Station
objects crossing your sky now

DELTA 1 DEB

Track DELTA 1 DEB now!
10-day predictions


NORAD ID: 9681
Int'l Code: 1975-004GC
Perigee: 717.4 km
Apogee: 795.2 km
Inclination: 98.0 °
Period: 99.8 minutes
Semi major axis: 7127 km
RCS: 0.0088 m2 (small)
Launch date: January 22, 1975
Source: United States (US)
Launch site: AIR FORCE WESTERN TEST RANGE (AFWTR)

Note: This is SATELLITE DEBRIS
Your satellite tracking list
Your tracking list is empty




NASA's NSSDC Master Catalog

Two Line Element Set (TLE):
1 09681U 75004GC  25043.48280558  .00000465  00000-0  14926-3 0  9994
2 09681  98.0415 127.9358 0054582 338.5841  21.3067 14.42825065573162
Source of the keplerian elements: AFSPC